Regional Weather Roundup
Issued by NWS

Home | Current Version | Previous Version | Text Only | Print | Product List | Glossary Off
Versions: 1 2 3 4 5 6 7 8 9 10 11 12 13 14 15 16 17 18 19 20 21 22 23 24 25 26 27 28 29 30 31 32 33 34 35 36 37 38 39 40 41 42 43 44 45 46 47 48 49 50

000
ASUS45 KPSR 221810
RWRAZ

ARIZONA HOURLY REGIONAL WEATHER ROUNDUP
NATIONAL WEATHER SERVICE PHOENIX AZ
1100 AM MST SUN OCT 22 2017

NOTE: FAIR INDICATES FEW OR NO CLOUDS BELOW 12,000 FEET WITH NO
SIGNIFICANT WEATHER AND/OR OBSTRUCTIONS TO VISIBILITY.

AZZ001>003-036-221900-
NORTHWEST ARIZONA

CITY           SKY/WX    TMP DP  RH WIND       PRES   REMARKS
BULLHEAD CITY  SUNNY     79  14   8 N22G31    30.22S
KINGMAN        SUNNY     72  15  11 N9        30.35S
6HR MIN TEMP:  44; 6HR MAX TEMP:  72;

$$

AZZ004>008-015-016-018-221900-
NORTH CENTRAL ARIZONA

CITY           SKY/WX    TMP DP  RH WIND       PRES   REMARKS
GRAND CANYON   SUNNY     65  20  17 CALM      30.48F
6HR MIN TEMP:  26; 6HR MAX TEMP:  65;

WILLIAMS       SUNNY     66  21  18 NE7       30.48R
PRESCOTT       SUNNY     64  10  12 NW3       30.41S
6HR MIN TEMP:  38; 6HR MAX TEMP:  64;

FLAGSTAFF      SUNNY     59  14  17 E9        30.50S
6HR MIN TEMP:  25; 6HR MAX TEMP:  60;

PAYSON         SUNNY     68   9  10 CALM      30.41S
PAGE           SUNNY     59  18  20 N6        30.42F
6HR MIN TEMP:  43; 6HR MAX TEMP:  59;

$$

AZZ009>014-017-221900-
NORTHEAST ARIZONA

CITY           SKY/WX    TMP DP  RH WIND       PRES   REMARKS
WINSLOW        SUNNY     60   6  11 CALM      30.46F
6HR MIN TEMP:  28; 6HR MAX TEMP:  60;

SAINT JOHNS    SUNNY     62  11  13 N3        30.44S
6HR MIN TEMP:  28; 6HR MAX TEMP:  62;

WINDOW ROCK    SUNNY     62  17  17 CALM      30.47S
6HR MIN TEMP:  22; 6HR MAX TEMP:  63;

SHOW LOW       SUNNY     63   9  12 VRB3      30.48S
$$

AZZ540-542>544-546-548-221900-
GREATER PHOENIX AREA

CITY           SKY/WX    TMP DP  RH WIND       PRES   REMARKS
PHOENIX        SUNNY     80  31  16 VRB3      30.18F
6HR MIN TEMP:  61; 6HR MAX TEMP:  80;

BUCKEYE        SUNNY     79  63  57 S5        30.20S
GLENDALE       SUNNY     82  18   9 CALM      30.21S
LUKE AFB       SUNNY     81  21  11 N3        30.18F
6HR MIN TEMP:  58; 6HR MAX TEMP:  81;

DEER VALLEY    SUNNY     83  12   7 VRB3      30.19F
6HR MIN TEMP:  59; 6HR MAX TEMP:  84;

SCOTTSDALE     SUNNY     83  20   9 CALM      30.21F
6HR MIN TEMP:  57; 6HR MAX TEMP:  83;

MESA-GATEWAY   SUNNY     75  37  25 SW7       30.21S
CHANDLER       SUNNY     68  32  26 CALM      30.20
$$

AZZ539-553-221900-
SOUTHWEST MARICOPA COUNTY AND PINAL COUNTY

CITY           SKY/WX    TMP DP  RH WIND       PRES   REMARKS
CASA GRANDE    NOT AVBL
$$

AZZ503-504-507>509-221900-
SOUTHEAST ARIZONA

CITY           SKY/WX    TMP DP  RH WIND       PRES   REMARKS
TUCSON         SUNNY     79  38  22 VRB6      30.24F
6HR MIN TEMP:  55; 6HR MAX TEMP:  79;

DAVIS-MONTHAN  SUNNY     79  34  19 VRB2      30.22F
RYAN FIELD     SUNNY     77  36  22 E8        30.24
NOGALES        SUNNY     80  31  16 VRB3      30.27F
6HR MIN TEMP:  45; 6HR MAX TEMP:  80;

SIERRA VISTA   SUNNY     76  26  16 E9        30.35R
6HR MIN TEMP:  50; 6HR MAX TEMP:  76;

DOUGLAS        SUNNY     73  28  18 VRB5      30.32S
6HR MIN TEMP:  40; 6HR MAX TEMP:  74;

SAFFORD        SUNNY     75  16  10 VRB6      30.30F
6HR MIN TEMP:  46; 6HR MAX TEMP:  75;

$$

AZZ532-221900-
SOUTHWEST ARIZONA

CITY           SKY/WX    TMP DP  RH WIND       PRES   REMARKS
YUMA           SUNNY     82  17   9 N13G21    30.16S
6HR MIN TEMP:  63; 6HR MAX TEMP:  83;

$$

CAZ041-043-047-048-061-525>527-560>570-221900-
SOUTHERN CALIFORNIA

CITY           SKY/WX    TMP DP  RH WIND       PRES   REMARKS
DOWNTOWN L.A.  SUNNY     86  30  13 CALM      30.11F
6HR MIN TEMP:  63; 6HR MAX TEMP:  86;

L.A. AIRPORT   MOSUNNY   85  31  14 VRB3      30.12F
6HR MIN TEMP:  61; 6HR MAX TEMP:  85;

SAN DIEGO      MOSUNNY   79  37  22 NW7       30.12S
6HR MIN TEMP:  59; 6HR MAX TEMP:  79;

BURBANK        SUNNY     81  29  15 CALM      30.14F
6HR MIN TEMP:  56; 6HR MAX TEMP:  81;

ONTARIO        MOSUNNY   81  31  16 W5        30.15F
6HR MIN TEMP:  55; 6HR MAX TEMP:  81;

RIVERSIDE      SUNNY     87  26  11 NE8G20    30.15S
6HR MIN TEMP:  58; 6HR MAX TEMP:  87;

PALM SPRINGS   SUNNY     89  19   7 CALM      30.19S
6HR MIN TEMP:  65; 6HR MAX TEMP:  89;

EL CENTRO NAS  SUNNY     84  18   8 CALM      30.19R
6HR MIN TEMP:  51; 6HR MAX TEMP:  84;

IMPERIAL       SUNNY     81  28  14 CALM      30.16S
6HR MIN TEMP:  54; 6HR MAX TEMP:  82;

BLYTHE           N/A     77  23  13 E3        30.21S
6HR MIN TEMP:  53; 6HR MAX TEMP:  77;

NEEDLES        SUNNY     80  17   9 N10       30.24S
6HR MIN TEMP:  64; 6HR MAX TEMP:  81;

$$

NVZ020-UTZ003-221900-
SOUTHERN NEVADA-UTAH

CITY           SKY/WX    TMP DP  RH WIND       PRES   REMARKS
LAS VEGAS      SUNNY     71  21  15 CALM      30.32F
6HR MIN TEMP:  55; 6HR MAX TEMP:  71;

SALT LAKE CITY PTSUNNY   60  21  22 SE13      30.37S
6HR MIN TEMP:  48; 6HR MAX TEMP:  61;

$$

NMZ009-TXZ055-221900-
NEW MEXICO-WEST TEXAS

CITY           SKY/WX    TMP DP  RH WIND       PRES   REMARKS
ALBUQUERQUE    MOSUNNY   57   8  14 N3        30.44R
6HR MIN TEMP:  37; 6HR MAX TEMP:  58;

EL PASO        SUNNY     70  11  10 N10       30.34F
6HR MIN TEMP:  53; 6HR MAX TEMP:  70;

$$


........................KEY........................
SKY/WX - SKY CONDITION/WEATHER
TMP    - TEMPERATURE IN FAHRENHEIT
DP     - DEW POINT IN FAHRENHEIT
RH     - RELATIVE HUMIDITY IN PERCENT
WIND   - DIRECTION AND SPEED IN MILES PER HOUR (MPH)
VRB    - VARIABLE WIND DIRECTION
PRES   - MEAN SEA LEVEL PRESSURE IN INCHES OF MERCURY
         F - FALLING PRESSURE   R - RISING PRESSURE
         S - STEADY PRESSURE
VSB    - VISIBILITY IN MILES
HX     - HEAT INDEX IN FAHRENHEIT
WCI    - WIND CHILL INDEX IN FAHRENHEIT
TC     - TEMPERATURE IN CELSIUS WHICH IS ALSO KNOWN AS
         TEMPERATURE IN CENTIGRADE
AFB    - AIR FORCE BASE
         LUKE AFB IS LUKE AIR FORCE BASE
         DAVIS-MONTHAN IS DAVIS-MONTHAN AIR FORCE BASE
NAS    - NAVAL AIR STATION
         EL CENTRO NAS IS EL CENTRO NAVAL AIR STATION
N/A    - NOT AVAILABLE




USA.gov is the U.S. government's official web portal to all federal, state and local government web resources and services.